Weather History for Memphis, TN

Change the Weather History Date:

Tuesday, October 4, 2011

  Actual Average Record
Temperature  
Mean Temperature 66 °F 68 °F  
Max Temperature 81 °F 79 °F 92 °F (1954)
Min Temperature 50 °F 58 °F 41 °F (1987)
Degree Days  
Heating Degree Days 0 2  
Month to date heating degree days 12 6  
Since 1 July heating degree days 12 17  
Cooling Degree Days 1 5  
Month to date cooling degree days 1 21  
Year to date cooling degree days 2461 2172  
Growing Degree Days 16 (Base 50)    
Moisture  
Dew Point 43 °F    
Average Humidity 49    
Maximum Humidity 77    
Minimum Humidity 21    
Precipitation  
Precipitation 0.00 in 0.12 in 3.13 in (1929)
Month to date precipitation 0.00 0.48  
Year to date precipitation 40.82 38.95  
Snow  
Snow 0.00 in 0.00 in 0.00 in (2002)
Month to date snowfall 0.0 0.0  
Since 1 July snowfall 0.0 0.0  
Since 1 September snowfall 0.0 0.0  
Snow Depth -    
Sea Level Pressure  
Sea Level Pressure 30.24 in    
Wind  
Wind Speed 2 mph (NE)    
Max Wind Speed 8 mph    
Max Gust Speed 13 mph    
Visibility 10 miles    
Events      
T = Trace of Precipitation, MM = Missing Value Source: NWS Daily Summary

Daily Weather History Graph

Daily Weather History Graph

Search for Another Location

Airport:

Trip Planner

Search our weather history database for the weather conditions in past years. The results will help you decide how hot, cold, wet, or windy it might be!

Date:

Astronomy

Oct. 04, 2011 Rise Set
Actual Time 6:56 AM CDT 6:40 PM CDT
Civil Twilight 6:31 AM CDT 7:05 PM CDT
Nautical Twilight 6:02 AM CDT 7:34 PM CDT
Astronomical Twilight 5:32 AM CDT 8:04 PM CDT
Moon 2:27 PM CDT (10/4) No Moon Set
Length of Visible Light 12h 33m
Length of Day
11h 43m
First Quarter, 56% of the Moon is Illuminated
Oct 4
First Quarter
Oct 11
Full
Oct 19
Last Quarter
Oct 26
New
Nov 2
First Quarter

Hourly Weather History & Observations

Time (CDT) Temp. Dew Point Humidity Pressure Visibility Wind Dir Wind Speed Gust Speed Precip Events Conditions
12:54 AM 55.0 °F 46.0 °F 72% 30.22 in 10.0 mi Calm Calm - N/A   Clear
1:54 AM 53.1 °F 46.0 °F 77% 30.22 in 10.0 mi Calm Calm - N/A   Clear
2:54 AM 53.1 °F 44.1 °F 71% 30.22 in 10.0 mi Calm Calm - N/A   Clear
3:54 AM 54.0 °F 45.0 °F 72% 30.22 in 10.0 mi Calm Calm - N/A   Clear
4:54 AM 52.0 °F 45.0 °F 77% 30.23 in 10.0 mi Calm Calm - N/A   Clear
5:54 AM 52.0 °F 44.1 °F 74% 30.25 in 10.0 mi Calm Calm - N/A   Clear
6:54 AM 51.8 °F 44.6 °F 76% 30.27 in 10.0 mi Calm Calm - N/A   Partly Cloudy
7:54 AM 55.4 °F 48.2 °F 77% 30.28 in 10.0 mi Calm Calm - N/A   Partly Cloudy
8:54 AM 62.6 °F 44.6 °F 52% 30.30 in 10.0 mi Calm Calm - N/A   Partly Cloudy
9:54 AM 69.8 °F 44.6 °F 40% 30.31 in 10.0 mi Calm Calm - N/A   Partly Cloudy
10:54 AM 73.9 °F 43.0 °F 33% 30.31 in 10.0 mi North 3.5 mph - N/A   Clear
11:54 AM 75.9 °F 42.1 °F 30% 30.30 in 10.0 mi NNW 4.6 mph - N/A   Clear
12:54 PM 78.8 °F 42.8 °F 28% 30.28 in 10.0 mi North 5.8 mph - N/A   Clear
1:54 PM 78.8 °F 39.2 °F 24% 30.25 in 10.0 mi Calm Calm - N/A   Clear
2:54 PM 79.0 °F 36.0 °F 21% 30.22 in 10.0 mi East 4.6 mph - N/A   Clear
3:54 PM 81.0 °F 37.9 °F 21% 30.20 in 10.0 mi Variable 6.9 mph - N/A   Clear
4:54 PM 80.1 °F 39.0 °F 23% 30.19 in 10.0 mi East 4.6 mph - N/A   Clear
5:54 PM 78.1 °F 39.0 °F 25% 30.19 in 10.0 mi Calm Calm - N/A   Clear
6:54 PM 75.0 °F 39.0 °F 27% 30.19 in 10.0 mi ENE 4.6 mph - N/A   Clear
7:54 PM 68.0 °F 44.1 °F 42% 30.20 in 10.0 mi Calm Calm - N/A   Clear
8:54 PM 66.0 °F 45.0 °F 47% 30.21 in 10.0 mi Calm Calm - N/A   Clear
9:54 PM 63.0 °F 46.9 °F 56% 30.21 in 10.0 mi Calm Calm - N/A   Clear
10:54 PM 61.0 °F 46.9 °F 60% 30.21 in 10.0 mi Calm Calm - N/A   Clear
11:54 PM 61.0 °F 46.9 °F 60% 30.20 in 10.0 mi Calm Calm - N/A   Clear